owner,sensor,date,latitude,longitude,vertical_datum,sea_water_temperature,qcFlag 
ENP,ioos.station.NOAA.NDBC:WWEF1:1,2014-12-01T00:00:00Z,25.2320,-80.9380,1.0,19.68,2 
ENP,ioos.station.NOAA.NDBC:WWEF1:1,2014-12-01T01:00:00Z,25.2320,-80.9380,1.0,19.63,2 
ENP,ioos.station.NOAA.NDBC:WWEF1:1,2014-12-01T02:00:00Z,25.2320,-80.9380,1.0,19.59,2 
ENP,ioos.station.NOAA.NDBC:WWEF1:1,2014-12-01T03:00:00Z,25.2320,-80.9380,1.0,19.58,2 
ENP,ioos.station.NOAA.NDBC:WWEF1:1,2014-12-01T04:00:00Z,25.2320,-80.9380,1.0,19.57,2 
ENP,ioos.station.NOAA.NDBC:WWEF1:1,2014-12-01T05:00:00Z,25.2320,-80.9380,1.0,19.57,2 
ENP,ioos.station.NOAA.NDBC:WWEF1:1,2014-12-01T06:00:00Z,25.2320,-80.9380,1.0,19.58,2 
ENP,ioos.station.NOAA.NDBC:WWEF1:1,2014-12-01T08:00:00Z,25.2320,-80.9380,1.0,19.64,2 
ENP,ioos.station.NOAA.NDBC:WWEF1:1,2014-12-01T09:00:00Z,25.2320,-80.9380,1.0,19.63,2 
ENP,ioos.station.NOAA.NDBC:WWEF1:1,2014-12-01T10:00:00Z,25.2320,-80.9380,1.0,19.59,2 
ENP,ioos.station.NOAA.NDBC:WWEF1:1,2014-12-01T16:00:00Z,25.2320,-80.9380,1.0,19.82,2 
ENP,ioos.station.NOAA.NDBC:WWEF1:1,2014-12-01T18:00:00Z,25.2320,-80.9380,1.0,20.47,2 
ENP,ioos.station.NOAA.NDBC:WWEF1:1,2014-12-01T19:00:00Z,25.2320,-80.9380,1.0,20.79,2 
ENP,ioos.station.NOAA.NDBC:WWEF1:1,2014-12-01T20:00:00Z,25.2320,-80.9380,1.0,20.98,2 
ENP,ioos.station.NOAA.NDBC:WWEF1:1,2014-12-01T21:00:00Z,25.2320,-80.9380,1.0,21.13,2 
ENP,ioos.station.NOAA.NDBC:WWEF1:1,2014-12-01T22:00:00Z,25.2320,-80.9380,1.0,21.25,2 
ENP,ioos.station.NOAA.NDBC:WWEF1:1,2014-12-01T23:00:00Z,25.2320,-80.9380,1.0,21.28,2 
ENP,ioos.station.NOAA.NDBC:WWEF1:1,2014-12-02T00:00:00Z,25.2320,-80.9380,1.0,21.25,2 
ENP,ioos.station.NOAA.NDBC:WWEF1:1,2014-12-02T01:00:00Z,25.2320,-80.9380,1.0,21.21,2 
ENP,ioos.station.NOAA.NDBC:WWEF1:1,2014-12-02T02:00:00Z,25.2320,-80.9380,1.0,21.18,2 
ENP,ioos.station.NOAA.NDBC:WWEF1:1,2014-12-02T03:00:00Z,25.2320,-80.9380,1.0,21.15,2 
ENP,ioos.station.NOAA.NDBC:WWEF1:1,2014-12-02T05:00:00Z,25.2320,-80.9380,1.0,21.08,2 
ENP,ioos.station.NOAA.NDBC:WWEF1:1,2014-12-02T06:00:00Z,25.2320,-80.9380,1.0,21.03,2 
ENP,ioos.station.NOAA.NDBC:WWEF1:1,2014-12-02T07:00:00Z,25.2320,-80.9380,1.0,20.98,2 
ENP,ioos.station.NOAA.NDBC:WWEF1:1,2014-12-02T09:00:00Z,25.2320,-80.9380,1.0,21.02,2 
ENP,ioos.station.NOAA.NDBC:WWEF1:1,2014-12-02T10:00:00Z,25.2320,-80.9380,1.0,21.0,2 
ENP,ioos.station.NOAA.NDBC:WWEF1:1,2014-12-02T11:00:00Z,25.2320,-80.9380,1.0,20.98,2 
ENP,ioos.station.NOAA.NDBC:WWEF1:1,2014-12-02T12:00:00Z,25.2320,-80.9380,1.0,20.96,2 
ENP,ioos.station.NOAA.NDBC:WWEF1:1,2014-12-02T13:00:00Z,25.2320,-80.9380,1.0,20.95,2 
ENP,ioos.station.NOAA.NDBC:WWEF1:1,2014-12-02T14:00:00Z,25.2320,-80.9380,1.0,20.92,2 
ENP,ioos.station.NOAA.NDBC:WWEF1:1,2014-12-02T15:00:00Z,25.2320,-80.9380,1.0,20.89,2 
ENP,ioos.station.NOAA.NDBC:WWEF1:1,2014-12-02T16:00:00Z,25.2320,-80.9380,1.0,20.93,2 
ENP,ioos.station.NOAA.NDBC:WWEF1:1,2014-12-02T17:00:00Z,25.2320,-80.9380,1.0,21.2,2 
ENP,ioos.station.NOAA.NDBC:WWEF1:1,2014-12-02T18:00:00Z,25.2320,-80.9380,1.0,21.64,2 
ENP,ioos.station.NOAA.NDBC:WWEF1:1,2014-12-02T19:00:00Z,25.2320,-80.9380,1.0,21.84,2 
ENP,ioos.station.NOAA.NDBC:WWEF1:1,2014-12-02T21:00:00Z,25.2320,-80.9380,1.0,22.08,2 
ENP,ioos.station.NOAA.NDBC:WWEF1:1,2014-12-02T22:00:00Z,25.2320,-80.9380,1.0,22.08,2 
ENP,ioos.station.NOAA.NDBC:WWEF1:1,2014-12-02T23:00:00Z,25.2320,-80.9380,1.0,22.06,2 
ENP,ioos.station.NOAA.NDBC:WWEF1:1,2014-12-03T00:00:00Z,25.2320,-80.9380,1.0,22.03,2 
ENP,ioos.station.NOAA.NDBC:WWEF1:1,2014-12-03T01:00:00Z,25.2320,-80.9380,1.0,22.02,2 
ENP,ioos.station.NOAA.NDBC:WWEF1:1,2014-12-03T02:00:00Z,25.2320,-80.9380,1.0,21.99,2 
ENP,ioos.station.NOAA.NDBC:WWEF1:1,2014-12-03T03:00:00Z,25.2320,-80.9380,1.0,21.95,2 
ENP,ioos.station.NOAA.NDBC:WWEF1:1,2014-12-03T04:00:00Z,25.2320,-80.9380,1.0,21.91,2 
ENP,ioos.station.NOAA.NDBC:WWEF1:1,2014-12-03T05:00:00Z,25.2320,-80.9380,1.0,21.87,2 
ENP,ioos.station.NOAA.NDBC:WWEF1:1,2014-12-03T06:00:00Z,25.2320,-80.9380,1.0,21.86,2 
ENP,ioos.station.NOAA.NDBC:WWEF1:1,2014-12-03T07:00:00Z,25.2320,-80.9380,1.0,21.88,2 
ENP,ioos.station.NOAA.NDBC:WWEF1:1,2014-12-03T08:00:00Z,25.2320,-80.9380,1.0,21.9,2 
ENP,ioos.station.NOAA.NDBC:WWEF1:1,2014-12-03T09:00:00Z,25.2320,-80.9380,1.0,21.86,2 
ENP,ioos.station.NOAA.NDBC:WWEF1:1,2014-12-03T10:00:00Z,25.2320,-80.9380,1.0,21.79,2 
ENP,ioos.station.NOAA.NDBC:WWEF1:1,2014-12-03T11:00:00Z,25.2320,-80.9380,1.0,21.71,2 
ENP,ioos.station.NOAA.NDBC:WWEF1:1,2014-12-03T12:00:00Z,25.2320,-80.9380,1.0,21.64,2 
ENP,ioos.station.NOAA.NDBC:WWEF1:1,2014-12-03T13:00:00Z,25.2320,-80.9380,1.0,21.58,2 
ENP,ioos.station.NOAA.NDBC:WWEF1:1,2014-12-03T14:00:00Z,25.2320,-80.9380,1.0,21.51,2 
ENP,ioos.station.NOAA.NDBC:WWEF1:1,2014-12-03T16:00:00Z,25.2320,-80.9380,1.0,21.62,2 
ENP,ioos.station.NOAA.NDBC:WWEF1:1,2014-12-03T17:00:00Z,25.2320,-80.9380,1.0,21.84,2 
ENP,ioos.station.NOAA.NDBC:WWEF1:1,2014-12-03T18:00:00Z,25.2320,-80.9380,1.0,22.08,2 
ENP,ioos.station.NOAA.NDBC:WWEF1:1,2014-12-03T19:00:00Z,25.2320,-80.9380,1.0,22.38,2 
ENP,ioos.station.NOAA.NDBC:WWEF1:1,2014-12-03T20:00:00Z,25.2320,-80.9380,1.0,22.61,2 
ENP,ioos.station.NOAA.NDBC:WWEF1:1,2014-12-03T21:00:00Z,25.2320,-80.9380,1.0,22.81,2 
ENP,ioos.station.NOAA.NDBC:WWEF1:1,2014-12-03T22:00:00Z,25.2320,-80.9380,1.0,22.89,2 
ENP,ioos.station.NOAA.NDBC:WWEF1:1,2014-12-03T23:00:00Z,25.2320,-80.9380,1.0,22.87,2 
ENP,ioos.station.NOAA.NDBC:WWEF1:1,2014-12-04T00:00:00Z,25.2320,-80.9380,1.0,22.84,2 
ENP,ioos.station.NOAA.NDBC:WWEF1:1,2014-12-04T01:00:00Z,25.2320,-80.9380,1.0,22.81,2 
ENP,ioos.station.NOAA.NDBC:WWEF1:1,2014-12-04T02:00:00Z,25.2320,-80.9380,1.0,22.76,2 
ENP,ioos.station.NOAA.NDBC:WWEF1:1,2014-12-04T03:00:00Z,25.2320,-80.9380,1.0,22.7,2 
ENP,ioos.station.NOAA.NDBC:WWEF1:1,2014-12-04T04:00:00Z,25.2320,-80.9380,1.0,22.62,2 
ENP,ioos.station.NOAA.NDBC:WWEF1:1,2014-12-04T05:00:00Z,25.2320,-80.9380,1.0,22.56,2 
ENP,ioos.station.NOAA.NDBC:WWEF1:1,2014-12-04T06:00:00Z,25.2320,-80.9380,1.0,22.5,2 
ENP,ioos.station.NOAA.NDBC:WWEF1:1,2014-12-04T07:00:00Z,25.2320,-80.9380,1.0,22.47,2 
ENP,ioos.station.NOAA.NDBC:WWEF1:1,2014-12-04T09:00:00Z,25.2320,-80.9380,1.0,22.38,2 
ENP,ioos.station.NOAA.NDBC:WWEF1:1,2014-12-04T10:00:00Z,25.2320,-80.9380,1.0,22.28,2 
ENP,ioos.station.NOAA.NDBC:WWEF1:1,2014-12-04T11:00:00Z,25.2320,-80.9380,1.0,22.17,2 
ENP,ioos.station.NOAA.NDBC:WWEF1:1,2014-12-04T12:00:00Z,25.2320,-80.9380,1.0,22.07,2 
ENP,ioos.station.NOAA.NDBC:WWEF1:1,2014-12-04T13:00:00Z,25.2320,-80.9380,1.0,21.99,2 
ENP,ioos.station.NOAA.NDBC:WWEF1:1,2014-12-04T14:00:00Z,25.2320,-80.9380,1.0,21.94,2 
ENP,ioos.station.NOAA.NDBC:WWEF1:1,2014-12-04T15:00:00Z,25.2320,-80.9380,1.0,21.91,2 
ENP,ioos.station.NOAA.NDBC:WWEF1:1,2014-12-04T16:00:00Z,25.2320,-80.9380,1.0,21.92,2 
ENP,ioos.station.NOAA.NDBC:WWEF1:1,2014-12-04T17:00:00Z,25.2320,-80.9380,1.0,22.1,2 
ENP,ioos.station.NOAA.NDBC:WWEF1:1,2014-12-04T18:00:00Z,25.2320,-80.9380,1.0,22.4,2 
ENP,ioos.station.NOAA.NDBC:WWEF1:1,2014-12-04T19:00:00Z,25.2320,-80.9380,1.0,22.72,2 
ENP,ioos.station.NOAA.NDBC:WWEF1:1,2014-12-04T21:00:00Z,25.2320,-80.9380,1.0,23.18,2 
ENP,ioos.station.NOAA.NDBC:WWEF1:1,2014-12-04T22:00:00Z,25.2320,-80.9380,1.0,23.28,2 
ENP,ioos.station.NOAA.NDBC:WWEF1:1,2014-12-04T23:00:00Z,25.2320,-80.9380,1.0,23.28,2 
ENP,ioos.station.NOAA.NDBC:WWEF1:1,2014-12-05T00:00:00Z,25.2320,-80.9380,1.0,23.25,2 
ENP,ioos.station.NOAA.NDBC:WWEF1:1,2014-12-05T01:00:00Z,25.2320,-80.9380,1.0,23.24,2 
ENP,ioos.station.NOAA.NDBC:WWEF1:1,2014-12-05T02:00:00Z,25.2320,-80.9380,1.0,23.23,2 
ENP,ioos.station.NOAA.NDBC:WWEF1:1,2014-12-05T03:00:00Z,25.2320,-80.9380,1.0,23.2,2 
ENP,ioos.station.NOAA.NDBC:WWEF1:1,2014-12-05T05:00:00Z,25.2320,-80.9380,1.0,23.11,2 
ENP,ioos.station.NOAA.NDBC:WWEF1:1,2014-12-05T06:00:00Z,25.2320,-80.9380,1.0,23.03,2 
ENP,ioos.station.NOAA.NDBC:WWEF1:1,2014-12-05T07:00:00Z,25.2320,-80.9380,1.0,22.96,2 
ENP,ioos.station.NOAA.NDBC:WWEF1:1,2014-12-05T08:00:00Z,25.2320,-80.9380,1.0,22.93,2 
ENP,ioos.station.NOAA.NDBC:WWEF1:1,2014-12-05T09:00:00Z,25.2320,-80.9380,1.0,22.9,2 
ENP,ioos.station.NOAA.NDBC:WWEF1:1,2014-12-05T10:00:00Z,25.2320,-80.9380,1.0,22.84,2 
ENP,ioos.station.NOAA.NDBC:WWEF1:1,2014-12-05T11:00:00Z,25.2320,-80.9380,1.0,22.76,2 
ENP,ioos.station.NOAA.NDBC:WWEF1:1,2014-12-05T12:00:00Z,25.2320,-80.9380,1.0,22.68,2 
ENP,ioos.station.NOAA.NDBC:WWEF1:1,2014-12-05T13:00:00Z,25.2320,-80.9380,1.0,22.56,2 
ENP,ioos.station.NOAA.NDBC:WWEF1:1,2014-12-05T14:00:00Z,25.2320,-80.9380,1.0,22.5,2 
ENP,ioos.station.NOAA.NDBC:WWEF1:1,2014-12-05T15:00:00Z,25.2320,-80.9380,1.0,22.5,2 
ENP,ioos.station.NOAA.NDBC:WWEF1:1,2014-12-05T16:00:00Z,25.2320,-80.9380,1.0,22.74,2 
ENP,ioos.station.NOAA.NDBC:WWEF1:1,2014-12-05T17:00:00Z,25.2320,-80.9380,1.0,23.0,2 
ENP,ioos.station.NOAA.NDBC:WWEF1:1,2014-12-05T18:00:00Z,25.2320,-80.9380,1.0,23.2,2 
ENP,ioos.station.NOAA.NDBC:WWEF1:1,2014-12-05T19:00:00Z,25.2320,-80.9380,1.0,23.52,2 
ENP,ioos.station.NOAA.NDBC:WWEF1:1,2014-12-05T20:00:00Z,25.2320,-80.9380,1.0,23.7,2 
ENP,ioos.station.NOAA.NDBC:WWEF1:1,2014-12-05T21:00:00Z,25.2320,-80.9380,1.0,23.83,2 
ENP,ioos.station.NOAA.NDBC:WWEF1:1,2014-12-05T22:00:00Z,25.2320,-80.9380,1.0,23.89,2 
ENP,ioos.station.NOAA.NDBC:WWEF1:1,2014-12-05T23:00:00Z,25.2320,-80.9380,1.0,23.89,2 
ENP,ioos.station.NOAA.NDBC:WWEF1:1,2014-12-06T00:00:00Z,25.2320,-80.9380,1.0,23.85,2 
ENP,ioos.station.NOAA.NDBC:WWEF1:1,2014-12-06T01:00:00Z,25.2320,-80.9380,1.0,23.81,2 
ENP,ioos.station.NOAA.NDBC:WWEF1:1,2014-12-06T02:00:00Z,25.2320,-80.9380,1.0,23.76,2 
ENP,ioos.station.NOAA.NDBC:WWEF1:1,2014-12-06T03:00:00Z,25.2320,-80.9380,1.0,23.73,2 
ENP,ioos.station.NOAA.NDBC:WWEF1:1,2014-12-06T06:00:00Z,25.2320,-80.9380,1.0,23.54,2 
ENP,ioos.station.NOAA.NDBC:WWEF1:1,2014-12-06T07:00:00Z,25.2320,-80.9380,1.0,23.5,2 
ENP,ioos.station.NOAA.NDBC:WWEF1:1,2014-12-06T08:00:00Z,25.2320,-80.9380,1.0,23.45,2 
ENP,ioos.station.NOAA.NDBC:WWEF1:1,2014-12-06T09:00:00Z,25.2320,-80.9380,1.0,23.41,2 
ENP,ioos.station.NOAA.NDBC:WWEF1:1,2014-12-06T10:00:00Z,25.2320,-80.9380,1.0,23.37,2 
ENP,ioos.station.NOAA.NDBC:WWEF1:1,2014-12-06T11:00:00Z,25.2320,-80.9380,1.0,23.32,2 
ENP,ioos.station.NOAA.NDBC:WWEF1:1,2014-12-06T12:00:00Z,25.2320,-80.9380,1.0,23.27,2 
ENP,ioos.station.NOAA.NDBC:WWEF1:1,2014-12-06T13:00:00Z,25.2320,-80.9380,1.0,23.23,2 
ENP,ioos.station.NOAA.NDBC:WWEF1:1,2014-12-06T14:00:00Z,25.2320,-80.9380,1.0,23.23,2 
ENP,ioos.station.NOAA.NDBC:WWEF1:1,2014-12-06T15:00:00Z,25.2320,-80.9380,1.0,23.24,2 
ENP,ioos.station.NOAA.NDBC:WWEF1:1,2014-12-06T17:00:00Z,25.2320,-80.9380,1.0,23.43,2 
ENP,ioos.station.NOAA.NDBC:WWEF1:1,2014-12-06T18:00:00Z,25.2320,-80.9380,1.0,23.58,2 
ENP,ioos.station.NOAA.NDBC:WWEF1:1,2014-12-06T19:00:00Z,25.2320,-80.9380,1.0,23.87,2 
ENP,ioos.station.NOAA.NDBC:WWEF1:1,2014-12-06T20:00:00Z,25.2320,-80.9380,1.0,24.22,2 
ENP,ioos.station.NOAA.NDBC:WWEF1:1,2014-12-06T21:00:00Z,25.2320,-80.9380,1.0,24.47,2 
ENP,ioos.station.NOAA.NDBC:WWEF1:1,2014-12-06T22:00:00Z,25.2320,-80.9380,1.0,24.57,2 
ENP,ioos.station.NOAA.NDBC:WWEF1:1,2014-12-06T23:00:00Z,25.2320,-80.9380,1.0,24.62,2 
ENP,ioos.station.NOAA.NDBC:WWEF1:1,2014-12-07T00:00:00Z,25.2320,-80.9380,1.0,24.61,2 
ENP,ioos.station.NOAA.NDBC:WWEF1:1,2014-12-07T01:00:00Z,25.2320,-80.9380,1.0,24.57,2 
ENP,ioos.station.NOAA.NDBC:WWEF1:1,2014-12-07T02:00:00Z,25.2320,-80.9380,1.0,24.53,2 
ENP,ioos.station.NOAA.NDBC:WWEF1:1,2014-12-07T03:00:00Z,25.2320,-80.9380,1.0,24.47,2 
ENP,ioos.station.NOAA.NDBC:WWEF1:1,2014-12-07T04:00:00Z,25.2320,-80.9380,1.0,24.38,2 
ENP,ioos.station.NOAA.NDBC:WWEF1:1,2014-12-07T05:00:00Z,25.2320,-80.9380,1.0,24.28,2 
ENP,ioos.station.NOAA.NDBC:WWEF1:1,2014-12-07T06:00:00Z,25.2320,-80.9380,1.0,24.19,2 
ENP,ioos.station.NOAA.NDBC:WWEF1:1,2014-12-07T07:00:00Z,25.2320,-80.9380,1.0,24.1,2 
ENP,ioos.station.NOAA.NDBC:WWEF1:1,2014-12-07T09:00:00Z,25.2320,-80.9380,1.0,23.94,2 
ENP,ioos.station.NOAA.NDBC:WWEF1:1,2014-12-07T10:00:00Z,25.2320,-80.9380,1.0,23.82,2 
ENP,ioos.station.NOAA.NDBC:WWEF1:1,2014-12-07T11:00:00Z,25.2320,-80.9380,1.0,23.72,2 
ENP,ioos.station.NOAA.NDBC:WWEF1:1,2014-12-07T12:00:00Z,25.2320,-80.9380,1.0,23.71,2 
ENP,ioos.station.NOAA.NDBC:WWEF1:1,2014-12-07T13:00:00Z,25.2320,-80.9380,1.0,23.81,2 
ENP,ioos.station.NOAA.NDBC:WWEF1:1,2014-12-07T14:00:00Z,25.2320,-80.9380,1.0,23.95,2 
ENP,ioos.station.NOAA.NDBC:WWEF1:1,2014-12-07T15:00:00Z,25.2320,-80.9380,1.0,24.01,2 
ENP,ioos.station.NOAA.NDBC:WWEF1:1,2014-12-07T16:00:00Z,25.2320,-80.9380,1.0,24.03,2 
ENP,ioos.station.NOAA.NDBC:WWEF1:1,2014-12-07T17:00:00Z,25.2320,-80.9380,1.0,24.09,2 
ENP,ioos.station.NOAA.NDBC:WWEF1:1,2014-12-07T18:00:00Z,25.2320,-80.9380,1.0,24.34,2 
ENP,ioos.station.NOAA.NDBC:WWEF1:1,2014-12-07T19:00:00Z,25.2320,-80.9380,1.0,24.73,2 
ENP,ioos.station.NOAA.NDBC:WWEF1:1,2014-12-07T20:00:00Z,25.2320,-80.9380,1.0,24.96,2 
ENP,ioos.station.NOAA.NDBC:WWEF1:1,2014-12-07T21:00:00Z,25.2320,-80.9380,1.0,25.09,2 
ENP,ioos.station.NOAA.NDBC:WWEF1:1,2014-12-07T22:00:00Z,25.2320,-80.9380,1.0,25.13,2 
ENP,ioos.station.NOAA.NDBC:WWEF1:1,2014-12-07T23:00:00Z,25.2320,-80.9380,1.0,25.13,2 
ENP,ioos.station.NOAA.NDBC:WWEF1:1,2014-12-08T00:00:00Z,25.2320,-80.9380,1.0,25.07,2 
ENP,ioos.station.NOAA.NDBC:WWEF1:1,2014-12-08T01:00:00Z,25.2320,-80.9380,1.0,24.99,2 
ENP,ioos.station.NOAA.NDBC:WWEF1:1,2014-12-08T02:00:00Z,25.2320,-80.9380,1.0,24.81,2 
ENP,ioos.station.NOAA.NDBC:WWEF1:1,2014-12-08T03:00:00Z,25.2320,-80.9380,1.0,24.63,2 
ENP,ioos.station.NOAA.NDBC:WWEF1:1,2014-12-08T05:00:00Z,25.2320,-80.9380,1.0,24.41,2 
ENP,ioos.station.NOAA.NDBC:WWEF1:1,2014-12-08T06:00:00Z,25.2320,-80.9380,1.0,24.23,2 
ENP,ioos.station.NOAA.NDBC:WWEF1:1,2014-12-08T07:00:00Z,25.2320,-80.9380,1.0,24.05,2 
ENP,ioos.station.NOAA.NDBC:WWEF1:1,2014-12-08T08:00:00Z,25.2320,-80.9380,1.0,23.81,2 
ENP,ioos.station.NOAA.NDBC:WWEF1:1,2014-12-08T09:00:00Z,25.2320,-80.9380,1.0,23.57,2 
ENP,ioos.station.NOAA.NDBC:WWEF1:1,2014-12-08T10:00:00Z,25.2320,-80.9380,1.0,23.39,2 
ENP,ioos.station.NOAA.NDBC:WWEF1:1,2014-12-08T11:00:00Z,25.2320,-80.9380,1.0,23.21,2 
ENP,ioos.station.NOAA.NDBC:WWEF1:1,2014-12-08T13:00:00Z,25.2320,-80.9380,1.0,22.98,2 
ENP,ioos.station.NOAA.NDBC:WWEF1:1,2014-12-08T15:00:00Z,25.2320,-80.9380,1.0,22.82,2 
ENP,ioos.station.NOAA.NDBC:WWEF1:1,2014-12-08T17:00:00Z,25.2320,-80.9380,1.0,22.9,2 
ENP,ioos.station.NOAA.NDBC:WWEF1:1,2014-12-08T18:00:00Z,25.2320,-80.9380,1.0,22.97,2 
ENP,ioos.station.NOAA.NDBC:WWEF1:1,2014-12-08T19:00:00Z,25.2320,-80.9380,1.0,23.04,2 
ENP,ioos.station.NOAA.NDBC:WWEF1:1,2014-12-08T20:00:00Z,25.2320,-80.9380,1.0,23.15,2 
ENP,ioos.station.NOAA.NDBC:WWEF1:1,2014-12-08T21:00:00Z,25.2320,-80.9380,1.0,23.69,2 
ENP,ioos.station.NOAA.NDBC:WWEF1:1,2014-12-08T22:00:00Z,25.2320,-80.9380,1.0,23.92,2 
ENP,ioos.station.NOAA.NDBC:WWEF1:1,2014-12-09T00:00:00Z,25.2320,-80.9380,1.0,23.96,2 
ENP,ioos.station.NOAA.NDBC:WWEF1:1,2014-12-09T01:00:00Z,25.2320,-80.9380,1.0,23.87,2 
ENP,ioos.station.NOAA.NDBC:WWEF1:1,2014-12-09T02:00:00Z,25.2320,-80.9380,1.0,23.74,2 
ENP,ioos.station.NOAA.NDBC:WWEF1:1,2014-12-09T03:00:00Z,25.2320,-80.9380,1.0,23.57,2 
ENP,ioos.station.NOAA.NDBC:WWEF1:1,2014-12-09T04:00:00Z,25.2320,-80.9380,1.0,23.41,2 
ENP,ioos.station.NOAA.NDBC:WWEF1:1,2014-12-09T05:00:00Z,25.2320,-80.9380,1.0,23.26,2 
ENP,ioos.station.NOAA.NDBC:WWEF1:1,2014-12-09T06:00:00Z,25.2320,-80.9380,1.0,23.11,2 
ENP,ioos.station.NOAA.NDBC:WWEF1:1,2014-12-09T07:00:00Z,25.2320,-80.9380,1.0,22.97,2 
ENP,ioos.station.NOAA.NDBC:WWEF1:1,2014-12-09T08:00:00Z,25.2320,-80.9380,1.0,22.88,2 
ENP,ioos.station.NOAA.NDBC:WWEF1:1,2014-12-09T09:00:00Z,25.2320,-80.9380,1.0,22.79,2 
ENP,ioos.station.NOAA.NDBC:WWEF1:1,2014-12-09T10:00:00Z,25.2320,-80.9380,1.0,22.65,2 
ENP,ioos.station.NOAA.NDBC:WWEF1:1,2014-12-09T11:00:00Z,25.2320,-80.9380,1.0,22.54,2 
ENP,ioos.station.NOAA.NDBC:WWEF1:1,2014-12-09T12:00:00Z,25.2320,-80.9380,1.0,22.45,2 
ENP,ioos.station.NOAA.NDBC:WWEF1:1,2014-12-09T13:00:00Z,25.2320,-80.9380,1.0,22.32,2 
ENP,ioos.station.NOAA.NDBC:WWEF1:1,2014-12-09T14:00:00Z,25.2320,-80.9380,1.0,22.18,2 
ENP,ioos.station.NOAA.NDBC:WWEF1:1,2014-12-09T15:00:00Z,25.2320,-80.9380,1.0,22.13,2 
ENP,ioos.station.NOAA.NDBC:WWEF1:1,2014-12-09T16:00:00Z,25.2320,-80.9380,1.0,22.11,2 
ENP,ioos.station.NOAA.NDBC:WWEF1:1,2014-12-09T17:00:00Z,25.2320,-80.9380,1.0,22.13,2 
ENP,ioos.station.NOAA.NDBC:WWEF1:1,2014-12-09T18:00:00Z,25.2320,-80.9380,1.0,22.18,2 
ENP,ioos.station.NOAA.NDBC:WWEF1:1,2014-12-09T19:00:00Z,25.2320,-80.9380,1.0,22.24,2 
ENP,ioos.station.NOAA.NDBC:WWEF1:1,2014-12-09T20:00:00Z,25.2320,-80.9380,1.0,22.28,2 
ENP,ioos.station.NOAA.NDBC:WWEF1:1,2014-12-09T21:00:00Z,25.2320,-80.9380,1.0,22.29,2 
ENP,ioos.station.NOAA.NDBC:WWEF1:1,2014-12-09T22:00:00Z,25.2320,-80.9380,1.0,22.28,2 
ENP,ioos.station.NOAA.NDBC:WWEF1:1,2014-12-09T23:00:00Z,25.2320,-80.9380,1.0,22.2,2 
ENP,ioos.station.NOAA.NDBC:WWEF1:1,2014-12-10T00:00:00Z,25.2320,-80.9380,1.0,22.1,2 
ENP,ioos.station.NOAA.NDBC:WWEF1:1,2014-12-10T01:00:00Z,25.2320,-80.9380,1.0,21.98,2 
ENP,ioos.station.NOAA.NDBC:WWEF1:1,2014-12-10T03:00:00Z,25.2320,-80.9380,1.0,21.63,2 
ENP,ioos.station.NOAA.NDBC:WWEF1:1,2014-12-10T04:00:00Z,25.2320,-80.9380,1.0,21.47,2 
ENP,ioos.station.NOAA.NDBC:WWEF1:1,2014-12-10T05:00:00Z,25.2320,-80.9380,1.0,21.22,2 
ENP,ioos.station.NOAA.NDBC:WWEF1:1,2014-12-10T06:00:00Z,25.2320,-80.9380,1.0,20.94,2 
ENP,ioos.station.NOAA.NDBC:WWEF1:1,2014-12-10T07:00:00Z,25.2320,-80.9380,1.0,20.71,2 
ENP,ioos.station.NOAA.NDBC:WWEF1:1,2014-12-10T08:00:00Z,25.2320,-80.9380,1.0,20.45,2 
ENP,ioos.station.NOAA.NDBC:WWEF1:1,2014-12-10T09:00:00Z,25.2320,-80.9380,1.0,20.19,2 
ENP,ioos.station.NOAA.NDBC:WWEF1:1,2014-12-10T10:00:00Z,25.2320,-80.9380,1.0,19.93,2 
ENP,ioos.station.NOAA.NDBC:WWEF1:1,2014-12-10T11:00:00Z,25.2320,-80.9380,1.0,19.78,2 
ENP,ioos.station.NOAA.NDBC:WWEF1:1,2014-12-10T12:00:00Z,25.2320,-80.9380,1.0,19.69,2 
ENP,ioos.station.NOAA.NDBC:WWEF1:1,2014-12-10T13:00:00Z,25.2320,-80.9380,1.0,19.55,2 
ENP,ioos.station.NOAA.NDBC:WWEF1:1,2014-12-10T14:00:00Z,25.2320,-80.9380,1.0,19.39,2 
ENP,ioos.station.NOAA.NDBC:WWEF1:1,2014-12-10T15:00:00Z,25.2320,-80.9380,1.0,19.27,2 
ENP,ioos.station.NOAA.NDBC:WWEF1:1,2014-12-10T16:00:00Z,25.2320,-80.9380,1.0,19.24,2 
ENP,ioos.station.NOAA.NDBC:WWEF1:1,2014-12-10T17:00:00Z,25.2320,-80.9380,1.0,19.24,2 
ENP,ioos.station.NOAA.NDBC:WWEF1:1,2014-12-10T18:00:00Z,25.2320,-80.9380,1.0,19.27,2 
ENP,ioos.station.NOAA.NDBC:WWEF1:1,2014-12-10T19:00:00Z,25.2320,-80.9380,1.0,19.37,2 
ENP,ioos.station.NOAA.NDBC:WWEF1:1,2014-12-10T21:00:00Z,25.2320,-80.9380,1.0,19.55,2 
ENP,ioos.station.NOAA.NDBC:WWEF1:1,2014-12-10T22:00:00Z,25.2320,-80.9380,1.0,19.61,2 
ENP,ioos.station.NOAA.NDBC:WWEF1:1,2014-12-10T23:00:00Z,25.2320,-80.9380,1.0,19.68,2 
ENP,ioos.station.NOAA.NDBC:WWEF1:1,2014-12-11T00:00:00Z,25.2320,-80.9380,1.0,19.69,2 
ENP,ioos.station.NOAA.NDBC:WWEF1:1,2014-12-11T01:00:00Z,25.2320,-80.9380,1.0,19.66,2 
ENP,ioos.station.NOAA.NDBC:WWEF1:1,2014-12-11T02:00:00Z,25.2320,-80.9380,1.0,19.6,2 
ENP,ioos.station.NOAA.NDBC:WWEF1:1,2014-12-11T03:00:00Z,25.2320,-80.9380,1.0,19.52,2 
ENP,ioos.station.NOAA.NDBC:WWEF1:1,2014-12-11T04:00:00Z,25.2320,-80.9380,1.0,19.44,2 
ENP,ioos.station.NOAA.NDBC:WWEF1:1,2014-12-11T05:00:00Z,25.2320,-80.9380,1.0,19.34,2 
ENP,ioos.station.NOAA.NDBC:WWEF1:1,2014-12-11T06:00:00Z,25.2320,-80.9380,1.0,19.22,2 
ENP,ioos.station.NOAA.NDBC:WWEF1:1,2014-12-11T07:00:00Z,25.2320,-80.9380,1.0,19.11,2 
ENP,ioos.station.NOAA.NDBC:WWEF1:1,2014-12-11T09:00:00Z,25.2320,-80.9380,1.0,18.85,2 
ENP,ioos.station.NOAA.NDBC:WWEF1:1,2014-12-11T10:00:00Z,25.2320,-80.9380,1.0,18.74,2 
ENP,ioos.station.NOAA.NDBC:WWEF1:1,2014-12-11T11:00:00Z,25.2320,-80.9380,1.0,18.66,2 
ENP,ioos.station.NOAA.NDBC:WWEF1:1,2014-12-11T12:00:00Z,25.2320,-80.9380,1.0,18.49,2 
ENP,ioos.station.NOAA.NDBC:WWEF1:1,2014-12-11T13:00:00Z,25.2320,-80.9380,1.0,18.35,2 
ENP,ioos.station.NOAA.NDBC:WWEF1:1,2014-12-11T14:00:00Z,25.2320,-80.9380,1.0,18.21,2 
ENP,ioos.station.NOAA.NDBC:WWEF1:1,2014-12-11T15:00:00Z,25.2320,-80.9380,1.0,18.16,2 
ENP,ioos.station.NOAA.NDBC:WWEF1:1,2014-12-11T16:00:00Z,25.2320,-80.9380,1.0,18.18,2 
ENP,ioos.station.NOAA.NDBC:WWEF1:1,2014-12-11T17:00:00Z,25.2320,-80.9380,1.0,18.26,2 
ENP,ioos.station.NOAA.NDBC:WWEF1:1,2014-12-11T18:00:00Z,25.2320,-80.9380,1.0,18.45,2 
ENP,ioos.station.NOAA.NDBC:WWEF1:1,2014-12-11T19:00:00Z,25.2320,-80.9380,1.0,19.01,2 
ENP,ioos.station.NOAA.NDBC:WWEF1:1,2014-12-11T21:00:00Z,25.2320,-80.9380,1.0,19.14,2 
ENP,ioos.station.NOAA.NDBC:WWEF1:1,2014-12-11T22:00:00Z,25.2320,-80.9380,1.0,19.11,2 
ENP,ioos.station.NOAA.NDBC:WWEF1:1,2014-12-11T23:00:00Z,25.2320,-80.9380,1.0,19.11,2 
ENP,ioos.station.NOAA.NDBC:WWEF1:1,2014-12-12T00:00:00Z,25.2320,-80.9380,1.0,19.11,2 
ENP,ioos.station.NOAA.NDBC:WWEF1:1,2014-12-12T01:00:00Z,25.2320,-80.9380,1.0,19.11,2 
ENP,ioos.station.NOAA.NDBC:WWEF1:1,2014-12-12T02:00:00Z,25.2320,-80.9380,1.0,19.07,2 
ENP,ioos.station.NOAA.NDBC:WWEF1:1,2014-12-12T03:00:00Z,25.2320,-80.9380,1.0,19.02,2 
ENP,ioos.station.NOAA.NDBC:WWEF1:1,2014-12-12T04:00:00Z,25.2320,-80.9380,1.0,18.97,2 
ENP,ioos.station.NOAA.NDBC:WWEF1:1,2014-12-12T05:00:00Z,25.2320,-80.9380,1.0,18.91,2 
ENP,ioos.station.NOAA.NDBC:WWEF1:1,2014-12-12T06:00:00Z,25.2320,-80.9380,1.0,18.82,2 
ENP,ioos.station.NOAA.NDBC:WWEF1:1,2014-12-12T07:00:00Z,25.2320,-80.9380,1.0,18.73,2 
ENP,ioos.station.NOAA.NDBC:WWEF1:1,2014-12-12T08:00:00Z,25.2320,-80.9380,1.0,18.63,2 
ENP,ioos.station.NOAA.NDBC:WWEF1:1,2014-12-12T09:00:00Z,25.2320,-80.9380,1.0,18.53,2 
ENP,ioos.station.NOAA.NDBC:WWEF1:1,2014-12-12T10:00:00Z,25.2320,-80.9380,1.0,18.47,2 
ENP,ioos.station.NOAA.NDBC:WWEF1:1,2014-12-12T11:00:00Z,25.2320,-80.9380,1.0,18.4,2 
ENP,ioos.station.NOAA.NDBC:WWEF1:1,2014-12-12T12:00:00Z,25.2320,-80.9380,1.0,18.33,2 
ENP,ioos.station.NOAA.NDBC:WWEF1:1,2014-12-12T13:00:00Z,25.2320,-80.9380,1.0,18.23,2 
ENP,ioos.station.NOAA.NDBC:WWEF1:1,2014-12-12T14:00:00Z,25.2320,-80.9380,1.0,18.17,2 
ENP,ioos.station.NOAA.NDBC:WWEF1:1,2014-12-12T15:00:00Z,25.2320,-80.9380,1.0,18.17,2 
ENP,ioos.station.NOAA.NDBC:WWEF1:1,2014-12-12T16:00:00Z,25.2320,-80.9380,1.0,18.22,2 
ENP,ioos.station.NOAA.NDBC:WWEF1:1,2014-12-12T17:00:00Z,25.2320,-80.9380,1.0,18.28,2 
ENP,ioos.station.NOAA.NDBC:WWEF1:1,2014-12-12T18:00:00Z,25.2320,-80.9380,1.0,18.44,2 
ENP,ioos.station.NOAA.NDBC:WWEF1:1,2014-12-12T19:00:00Z,25.2320,-80.9380,1.0,18.57,2 
ENP,ioos.station.NOAA.NDBC:WWEF1:1,2014-12-12T20:00:00Z,25.2320,-80.9380,1.0,18.72,2 
ENP,ioos.station.NOAA.NDBC:WWEF1:1,2014-12-12T21:00:00Z,25.2320,-80.9380,1.0,19.04,2 
ENP,ioos.station.NOAA.NDBC:WWEF1:1,2014-12-12T22:00:00Z,25.2320,-80.9380,1.0,19.34,2 
ENP,ioos.station.NOAA.NDBC:WWEF1:1,2014-12-12T23:00:00Z,25.2320,-80.9380,1.0,19.42,2 
ENP,ioos.station.NOAA.NDBC:WWEF1:1,2014-12-13T00:00:00Z,25.2320,-80.9380,1.0,19.4,2 
ENP,ioos.station.NOAA.NDBC:WWEF1:1,2014-12-13T01:00:00Z,25.2320,-80.9380,1.0,19.37,2 
ENP,ioos.station.NOAA.NDBC:WWEF1:1,2014-12-13T02:00:00Z,25.2320,-80.9380,1.0,19.32,2 
ENP,ioos.station.NOAA.NDBC:WWEF1:1,2014-12-13T05:00:00Z,25.2320,-80.9380,1.0,18.88,2 
ENP,ioos.station.NOAA.NDBC:WWEF1:1,2014-12-13T06:00:00Z,25.2320,-80.9380,1.0,18.77,2 
ENP,ioos.station.NOAA.NDBC:WWEF1:1,2014-12-13T07:00:00Z,25.2320,-80.9380,1.0,18.6,2 
ENP,ioos.station.NOAA.NDBC:WWEF1:1,2014-12-13T09:00:00Z,25.2320,-80.9380,1.0,18.31,2 
ENP,ioos.station.NOAA.NDBC:WWEF1:1,2014-12-13T10:00:00Z,25.2320,-80.9380,1.0,18.19,2 
ENP,ioos.station.NOAA.NDBC:WWEF1:1,2014-12-13T11:00:00Z,25.2320,-80.9380,1.0,18.0,2 
ENP,ioos.station.NOAA.NDBC:WWEF1:1,2014-12-13T12:00:00Z,25.2320,-80.9380,1.0,17.87,2 
ENP,ioos.station.NOAA.NDBC:WWEF1:1,2014-12-13T13:00:00Z,25.2320,-80.9380,1.0,17.82,2 
ENP,ioos.station.NOAA.NDBC:WWEF1:1,2014-12-13T14:00:00Z,25.2320,-80.9380,1.0,17.81,2 
ENP,ioos.station.NOAA.NDBC:WWEF1:1,2014-12-13T15:00:00Z,25.2320,-80.9380,1.0,17.76,2 
ENP,ioos.station.NOAA.NDBC:WWEF1:1,2014-12-13T16:00:00Z,25.2320,-80.9380,1.0,17.83,2 
ENP,ioos.station.NOAA.NDBC:WWEF1:1,2014-12-13T17:00:00Z,25.2320,-80.9380,1.0,17.93,2 
ENP,ioos.station.NOAA.NDBC:WWEF1:1,2014-12-13T18:00:00Z,25.2320,-80.9380,1.0,18.13,2 
ENP,ioos.station.NOAA.NDBC:WWEF1:1,2014-12-13T19:00:00Z,25.2320,-80.9380,1.0,18.29,2 